This is the latest recevied weather packets stored in our database for station/object EA3GKP-10. If no packets are shown the sender has not sent any weather packets the latest 10 day(s).
| Time | Temp. | Humidity | Pressure | Rain* | Wind** | Luminosity | Snow |
|---|---|---|---|---|---|---|---|
| 1777743429 | 21.67° C | - | - | 0 mm | 1.79 m/s, 163° | - | - |
| 1777742824 | 22.78° C | - | - | 0 mm | 0.89 m/s, 224° | - | - |
| 1777742521 | 22.22° C | - | - | 0 mm | 1.79 m/s, 105° | - | - |
| 1777742218 | 22.22° C | - | - | 0 mm | 0.89 m/s, 124° | - | - |
| 1777741915 | 22.22° C | - | - | 0 mm | 0.89 m/s, 80° | - | - |
| 1777741612 | 22.78° C | - | - | 0 mm | 0 m/s | - | - |
| 1777741309 | 22.78° C | - | - | 0 mm | 1.34 m/s, 69° | - | - |
| 1777741006 | 23.33° C | - | - | 0 mm | 0 m/s | - | - |
| 1777740704 | 21.67° C | - | - | 0 mm | 0.45 m/s, 191° | - | - |
| 1777740400 | 21.11° C | - | - | 0 mm | 1.34 m/s, 127° | - | - |
| 1777740094 | 21.11° C | - | - | 0 mm | 1.34 m/s, 136° | - | - |
| 1777739791 | 21.11° C | - | - | 0 mm | 1.79 m/s, 125° | - | - |
| 1777739488 | 20.56° C | - | - | 0 mm | 0.45 m/s, 113° | - | - |
| 1777738882 | 20° C | - | - | 0 mm | 1.34 m/s, 160° | - | - |
| 1777738579 | 20.56° C | - | - | 0 mm | 2.68 m/s, 132° | - | - |
| 1777738276 | 20.56° C | - | - | 0 mm | 2.24 m/s, 82° | - | - |
| 1777737671 | 21.11° C | - | - | 0 mm | 0.45 m/s, 73° | - | - |
| 1777737368 | 20.56° C | - | - | 0 mm | 1.79 m/s, 82° | - | - |
| 1777737065 | 20.56° C | - | - | 0 mm | 1.79 m/s, 136° | - | - |
| 1777736762 | 20.56° C | - | - | 0 mm | 1.79 m/s, 134° | - | - |
| 1777736459 | 20.56° C | - | - | 0 mm | 1.79 m/s, 75° | - | - |
| 1777736155 | 21.11° C | - | - | 0 mm | 1.79 m/s, 115° | - | - |
| 1777735849 | 21.67° C | - | - | 0 mm | 0.89 m/s, 114° | - | - |
| 1777735547 | 20.56° C | - | - | 0 mm | 0.45 m/s, 62° | - | - |
| 1777734936 | 21.11° C | - | - | 0 mm | 0.89 m/s, 108° | - | - |
* Rain latest hour (hover to see other rain measurements)
** Current wind speed in m/s (hover to see current wind gust speed)